Whakatane (NZWK)

Aerodrome — Elev 20
New Zealand
S037.55.14.002 E176.54.51.001
Loading chart...

Current Weather

NZWK 240000Z 32009KT 280V340 20KM SCT080 20/14 Q1021 RMK AUTO VATSIM USE ONLY

Published 46 minutes ago

Airport Activity

Loading chart...
Loading chart...

Standard ATC Positions

CallsignRadio Name / Freq / Voice Room / TypeFrequencyVoice RoomType
NZCH-B_CTR Bay Approach
119.500
nzch-b_ctr
119.500nzch-b_ctr

Charts

Ground Charts

Aerodrome (1) & (2)

Other Charts

Operational Data